Regional Weather Roundup
Issued by NWS Green Bay, WI

Home | Current Version | Previous Version | Graphics & Text | Print | Product List | Glossary Off
Versions: 1 2 3 4 5 6 7 8 9 10 11 12 13 14 15 16 17 18 19 20 21 22 23 24 25 26 27 28 29 30 31 32 33 34 35 36 37 38 39 40 41 42 43 44 45 46 47 48 49 50

000
ASUS43 KGRB 280910
RWRGRB

NORTH-CENTRAL AND NORTHEAST WISCONSIN REGIONAL WEATHER ROUNDUP
NATIONAL WEATHER SERVICE GREEN BAY WI
400 AM CDT MON JUL 28 2014

WIZ005-009-010>012-018-019-281000-
NORTH CENTRAL WISCONSIN

CITY           SKY/WX    TMP DP  RH WIND       PRES   REMARKS
IRONWOOD       CLEAR     45  45 100 W3        30.09S
MANITOWISH WTR CLEAR     49  48  95 NW3       30.10S
ARBOR VITAE    CLEAR     45  43  92 CALM      30.10S
EAGLE RIVER    CLEAR     46  46 100 CALM      30.08R
LAND O LAKES   CLEAR     49  46  87 N3        30.10R
RHINELANDER    CLEAR     50  48  93 NW3       30.09R
PHILLIPS       CLEAR     47  47  99 CALM      30.11S
ANTIGO         CLEAR     48  47  97 NW7       30.07S
TOMAHAWK       CLEAR     46  45  95 W3        30.11R
MERRILL        CLEAR     50  49  97 NW5       30.09S
$$

WIZ013-073-281000-
NORTHEAST WISCONSIN

CITY           SKY/WX    TMP DP  RH WIND       PRES   REMARKS
IRON MOUNTAIN  CLEAR     47  44  90 N3        30.03S
MARINETTE      CLEAR     50  43  76 N9        30.00S
OCONTO         CLEAR     51  46  82 N5        30.02R
$$

WIZ017-030-035>037-045-281000-
CENTRAL WISCONSIN

CITY           SKY/WX    TMP DP  RH WIND       PRES   REMARKS
MEDFORD        CLEAR     49  48  95 NW6       30.12R
WAUSAU         CLEAR     52  50  93 NW8       30.08R
MOSINEE        CLEAR     50  50 100 NW8       30.10R
MARSHFIELD     CLEAR     52  49  89 NW9       30.10R
WISC RAPIDS    CLEAR     54  50  86 MISG      30.09R
STEVENS POINT  CLEAR     51  49  93 N7        30.08R
WAUPACA        CLEAR     55  51  88 NW8       30.06R
SHAWANO        CLEAR     53  49  86 NW7       30.05R
CLINTONVILLE   CLEAR     52  48  87 NW6       30.05R
$$

WIZ038-039-048-051-281000-
FOX VALLEY

CITY           SKY/WX    TMP DP  RH WIND       PRES   REMARKS
NWS GREEN BAY  CLEAR     53  46  77 NW10      30.02R
APPLETON       CLEAR     52  46  82 N10       30.04R
OSHKOSH        CLEAR     56  50  80 N12G22    30.02R
FOND DU LAC    CLEAR     55  48  77 N12       30.02R
$$

WIZ022-050-052-281000-
EAST CENTRAL WISCONSIN

CITY           SKY/WX    TMP DP  RH WIND       PRES   REMARKS
STURGEON BAY   CLEAR     52  45  76 N18G26    29.99R
MANITOWOC      CLEAR     56  47  71 N13       29.98S
SHEBOYGAN      CLEAR     55  47  74 N12       29.98R
$$

LMZ563-521-522-541>543-281000-
LAKESHORE

STATION/POSITION TIME  TEMP    WIND        PRES    VSBY  WAVE
                       AIR SEA DIR/SP/G                  HT/PER
                 (UTC) (F)     (DEG/KT/KT) (MB)    (MI)  (FT/S)
SHEBOYGAN LKSHOR 0900   59     330/ 15/ 19 1015.1R
KEWAUNEE LKSHORE 0900   56     330/  9/ 14 1015.5R
NORTHPORT PIER   0900   55     350/ 20/ 26 1015.2S
N MID LAKE BUOY  0900   53 54  360/ 23/ 25 1013.3R         4/ 5
CHAMBERS ISLAND  0900   55     330/ 19/ 24 1015.9S
MENOMINEE LKSHOR 0900   53     340/ 15/ 18 1016.5S
$$



USA.gov is the U.S. government's official web portal to all federal, state and local government web resources and services.